Time,TemperatureF,DewpointF,PressureIn,WindDirection,WindDirectionDegrees,WindSpeedMPH,WindSpeedGustMPH,Humidity,HourlyPrecipIn,Conditions,Clouds,dailyrainin,SoftwareType,DateUTC
2013-09-15 00:00:00,55.2,50.9,29.91,West,270,0.0,0.7,81,0.00,,,0.00,fowsr,2013-09-15 04:00:00,
2013-09-15 00:05:00,54.9,50.5,29.91,SW,225,0.7,1.6,81,0.00,,,0.00,fowsr,2013-09-15 04:05:00,
2013-09-15 00:10:00,54.7,50.6,29.91,West,270,0.0,0.7,82,0.00,,,0.00,fowsr,2013-09-15 04:10:00,
2013-09-15 00:15:00,54.7,50.6,29.92,SW,225,0.7,1.6,82,0.00,,,0.00,fowsr,2013-09-15 04:15:00,
2013-09-15 00:20:00,54.5,50.7,29.92,South,180,0.7,2.2,83,0.00,,,0.00,fowsr,2013-09-15 04:20:00,
2013-09-15 00:25:00,54.5,50.7,29.92,SW,225,0.0,1.6,83,0.00,,,0.00,fowsr,2013-09-15 04:25:00,
2013-09-15 00:30:00,54.5,50.7,29.92,NW,315,1.6,2.2,83,0.00,,,0.00,fowsr,2013-09-15 04:30:00,
2013-09-15 00:35:00,54.5,50.9,29.92,SW,225,1.6,2.2,84,0.00,,,0.00,fowsr,2013-09-15 04:35:00,
2013-09-15 00:40:00,54.5,50.9,29.92,SW,225,0.7,2.2,84,0.00,,,0.00,fowsr,2013-09-15 04:40:00,
2013-09-15 00:45:00,54.5,50.9,29.92,South,180,1.6,3.1,84,0.00,,,0.00,fowsr,2013-09-15 04:45:00,
2013-09-15 00:50:00,54.5,50.7,29.92,NW,315,1.6,2.2,83,0.00,,,0.00,fowsr,2013-09-15 04:50:00,
2013-09-15 00:55:00,54.5,50.7,29.93,SW,225,0.0,0.7,83,0.00,,,0.00,fowsr,2013-09-15 04:55:00,
2013-09-15 01:00:00,54.3,50.5,29.93,West,270,0.0,0.7,83,0.00,,,0.00,fowsr,2013-09-15 05:00:00,
2013-09-15 01:05:00,54.1,50.3,29.93,SW,225,0.0,0.7,83,0.00,,,0.00,fowsr,2013-09-15 05:05:00,
2013-09-15 01:10:00,54.0,50.1,29.93,SW,225,0.0,1.6,83,0.00,,,0.00,fowsr,2013-09-15 05:10:00,
2013-09-15 01:15:00,54.0,50.1,29.93,South,180,1.6,3.1,83,0.00,,,0.00,fowsr,2013-09-15 05:15:00,
2013-09-15 01:20:00,54.0,50.1,29.93,SW,225,1.6,2.2,83,0.00,,,0.00,fowsr,2013-09-15 05:20:00,
2013-09-15 01:25:00,53.8,50.0,29.93,West,270,0.0,0.7,83,0.00,,,0.00,fowsr,2013-09-15 05:25:00,
2013-09-15 01:30:00,53.4,49.9,29.93,West,270,0.0,0.7,84,0.00,,,0.00,fowsr,2013-09-15 05:30:00,
2013-09-15 01:35:00,53.2,49.7,29.93,West,270,0.0,0.7,84,0.00,,,0.00,fowsr,2013-09-15 05:35:00,
2013-09-15 01:40:00,52.9,49.3,29.93,West,270,0.0,0.7,84,0.00,,,0.00,fowsr,2013-09-15 05:40:00,
2013-09-15 01:45:00,52.5,49.2,29.93,SW,225,0.0,0.7,85,0.00,,,0.00,fowsr,2013-09-15 05:45:00,
2013-09-15 01:50:00,52.3,49.0,29.93,SW,225,0.0,0.0,85,0.00,,,0.00,fowsr,2013-09-15 05:50:00,
2013-09-15 01:55:00,52.0,48.7,29.93,North,0,0.0,0.0,85,0.00,,,0.00,fowsr,2013-09-15 05:55:00,
2013-09-15 02:00:00,51.8,48.8,29.93,North,0,0.0,0.0,86,0.00,,,0.00,fowsr,2013-09-15 06:00:00,
2013-09-15 02:05:00,51.4,48.6,29.93,SW,225,0.0,0.0,87,0.00,,,0.00,fowsr,2013-09-15 06:05:00,
2013-09-15 02:10:00,51.3,48.7,29.93,SW,225,0.0,0.0,88,0.00,,,0.00,fowsr,2013-09-15 06:10:00,
2013-09-15 02:15:00,51.1,48.5,29.94,SW,225,0.0,0.0,88,0.00,,,0.00,fowsr,2013-09-15 06:15:00,
2013-09-15 02:20:00,50.9,48.6,29.93,SW,225,0.0,0.0,89,0.00,,,0.00,fowsr,2013-09-15 06:20:00,
2013-09-15 02:25:00,50.7,48.4,29.93,SW,225,0.0,0.0,89,0.00,,,0.00,fowsr,2013-09-15 06:25:00,
2013-09-15 02:30:00,50.5,48.2,29.93,SW,225,0.0,0.0,89,0.00,,,0.00,fowsr,2013-09-15 06:30:00,
2013-09-15 02:35:00,50.5,48.4,29.93,SW,225,0.0,0.0,90,0.00,,,0.00,fowsr,2013-09-15 06:35:00,
2013-09-15 02:40:00,50.4,48.2,29.93,SW,225,0.0,0.7,90,0.00,,,0.00,fowsr,2013-09-15 06:40:00,
2013-09-15 02:45:00,50.4,48.2,29.93,SW,225,0.0,0.0,90,0.00,,,0.00,fowsr,2013-09-15 06:45:00,
2013-09-15 02:50:00,50.4,48.5,29.93,South,180,0.0,0.0,91,0.00,,,0.00,fowsr,2013-09-15 06:50:00,
2013-09-15 02:55:00,50.4,48.5,29.93,SW,225,0.0,0.0,91,0.00,,,0.00,fowsr,2013-09-15 06:55:00,
2013-09-15 03:00:00,50.4,48.5,29.93,NW,315,0.0,0.7,91,0.00,,,0.00,fowsr,2013-09-15 07:00:00,
2013-09-15 03:05:00,50.4,48.5,29.93,NW,315,0.0,0.0,91,0.00,,,0.00,fowsr,2013-09-15 07:05:00,
2013-09-15 03:10:00,50.5,48.6,29.93,SW,225,1.6,2.2,91,0.00,,,0.00,fowsr,2013-09-15 07:10:00,
2013-09-15 03:15:00,50.5,48.6,29.93,South,180,0.0,1.6,91,0.00,,,0.00,fowsr,2013-09-15 07:15:00,
2013-09-15 03:20:00,50.5,48.6,29.93,SW,225,0.0,0.0,91,0.00,,,0.00,fowsr,2013-09-15 07:20:00,
2013-09-15 03:25:00,50.4,48.5,29.93,SW,225,0.0,0.0,91,0.00,,,0.00,fowsr,2013-09-15 07:25:00,
2013-09-15 03:30:00,50.2,48.3,29.93,SW,225,0.0,0.0,91,0.00,,,0.00,fowsr,2013-09-15 07:30:00,
2013-09-15 03:35:00,50.0,48.1,29.93,SW,225,0.0,0.0,91,0.00,,,0.00,fowsr,2013-09-15 07:35:00,
2013-09-15 03:45:00,49.6,48.0,29.94,SW,225,0.0,0.0,92,0.00,,,0.00,fowsr,2013-09-15 07:45:00,
2013-09-15 03:50:00,49.6,48.2,29.93,SW,225,0.0,0.7,93,0.00,,,0.00,fowsr,2013-09-15 07:50:00,
2013-09-15 03:55:00,49.6,48.2,29.94,SW,225,0.0,0.0,93,0.00,,,0.00,fowsr,2013-09-15 07:55:00,
2013-09-15 04:00:00,49.5,48.0,29.94,SW,225,0.0,0.7,93,0.00,,,0.00,fowsr,2013-09-15 08:00:00,
2013-09-15 04:05:00,49.3,47.8,29.94,SW,225,0.0,0.7,93,0.00,,,0.00,fowsr,2013-09-15 08:05:00,
2013-09-15 04:10:00,49.3,47.8,29.94,South,180,0.0,1.6,93,0.00,,,0.00,fowsr,2013-09-15 08:10:00,
2013-09-15 04:15:00,49.3,47.8,29.95,South,180,0.0,0.0,93,0.00,,,0.00,fowsr,2013-09-15 08:15:00,
2013-09-15 04:20:00,49.3,47.8,29.94,West,270,0.0,0.0,93,0.00,,,0.00,fowsr,2013-09-15 08:20:00,
2013-09-15 04:25:00,49.3,47.8,29.95,West,270,0.0,0.0,93,0.00,,,0.00,fowsr,2013-09-15 08:25:00,
2013-09-15 04:30:00,49.1,47.7,29.94,West,270,0.0,0.0,93,0.00,,,0.00,fowsr,2013-09-15 08:30:00,
2013-09-15 04:35:00,49.3,47.8,29.95,West,270,0.0,0.0,93,0.00,,,0.00,fowsr,2013-09-15 08:35:00,
2013-09-15 04:40:00,49.1,47.7,29.95,West,270,0.0,0.0,93,0.00,,,0.00,fowsr,2013-09-15 08:40:00,
2013-09-15 04:45:00,49.1,47.7,29.95,West,270,0.0,0.0,93,0.00,,,0.00,fowsr,2013-09-15 08:45:00,
2013-09-15 04:50:00,49.1,47.7,29.95,West,270,0.0,0.0,93,0.00,,,0.00,fowsr,2013-09-15 08:50:00,
2013-09-15 04:55:00,48.9,47.5,29.94,West,270,0.0,0.7,93,0.00,,,0.00,fowsr,2013-09-15 08:55:00,
2013-09-15 05:00:00,48.9,47.5,29.94,SW,225,0.0,0.7,93,0.00,,,0.00,fowsr,2013-09-15 09:00:00,
2013-09-15 05:05:00,48.9,47.5,29.95,SW,225,0.0,0.0,93,0.00,,,0.00,fowsr,2013-09-15 09:05:00,
2013-09-15 05:10:00,48.7,47.3,29.94,SW,225,0.0,0.0,93,0.00,,,0.00,fowsr,2013-09-15 09:10:00,
2013-09-15 05:15:00,48.7,47.5,29.95,SW,225,0.0,0.0,94,0.00,,,0.00,fowsr,2013-09-15 09:15:00,
2013-09-15 05:20:00,48.4,47.2,29.95,SW,225,0.0,0.0,94,0.00,,,0.00,fowsr,2013-09-15 09:20:00,
2013-09-15 05:25:00,48.4,47.2,29.95,SW,225,0.0,0.0,94,0.00,,,0.00,fowsr,2013-09-15 09:25:00,
2013-09-15 05:30:00,48.2,47.0,29.95,SW,225,0.0,0.0,94,0.00,,,0.00,fowsr,2013-09-15 09:30:00,
2013-09-15 05:35:00,48.0,47.0,29.95,SW,225,0.0,0.0,95,0.00,,,0.00,fowsr,2013-09-15 09:35:00,
2013-09-15 05:40:00,47.8,46.8,29.95,SW,225,0.0,0.0,95,0.00,,,0.00,fowsr,2013-09-15 09:40:00,
2013-09-15 05:45:00,47.8,46.8,29.95,SW,225,0.0,0.0,95,0.00,,,0.00,fowsr,2013-09-15 09:45:00,
2013-09-15 05:50:00,48.0,47.2,29.95,SW,225,0.0,0.0,96,0.00,,,0.00,fowsr,2013-09-15 09:50:00,
2013-09-15 05:55:00,47.8,47.0,29.95,SW,225,0.0,0.0,96,0.00,,,0.00,fowsr,2013-09-15 09:55:00,
2013-09-15 06:00:00,47.8,47.0,29.95,SW,225,0.0,0.0,96,0.00,,,0.00,fowsr,2013-09-15 10:00:00,
2013-09-15 06:05:00,47.8,47.0,29.96,NW,315,0.0,0.7,96,0.00,,,0.00,fowsr,2013-09-15 10:05:00,
2013-09-15 06:10:00,47.8,47.0,29.96,NW,315,0.0,0.0,96,0.00,,,0.00,fowsr,2013-09-15 10:10:00,
2013-09-15 06:15:00,47.7,47.1,29.96,NW,315,0.0,0.0,97,0.00,,,0.00,fowsr,2013-09-15 10:15:00,
2013-09-15 06:20:00,47.7,47.1,29.96,West,270,0.0,0.0,97,0.00,,,0.00,fowsr,2013-09-15 10:20:00,
2013-09-15 06:25:00,47.7,47.1,29.95,West,270,0.0,0.0,97,0.00,,,0.00,fowsr,2013-09-15 10:25:00,
2013-09-15 06:30:00,47.7,47.1,29.95,West,270,0.0,0.7,97,0.00,,,0.00,fowsr,2013-09-15 10:30:00,
2013-09-15 06:40:00,47.7,47.1,29.96,West,270,0.7,0.7,97,0.00,,,0.00,fowsr,2013-09-15 10:40:00,
2013-09-15 06:45:00,47.7,47.1,29.96,West,270,0.0,0.0,97,0.00,,,0.00,fowsr,2013-09-15 10:45:00,
2013-09-15 06:50:00,47.7,47.1,29.96,West,270,0.0,0.0,97,0.00,,,0.00,fowsr,2013-09-15 10:50:00,
2013-09-15 07:00:00,47.5,47.1,29.96,SW,225,0.0,0.0,98,0.00,,,0.00,fowsr,2013-09-15 11:00:00,
2013-09-15 07:05:00,47.7,47.3,29.96,SW,225,0.0,0.7,98,0.00,,,0.00,fowsr,2013-09-15 11:05:00,
2013-09-15 07:10:00,47.8,47.4,29.97,SW,225,0.0,0.7,98,0.00,,,0.00,fowsr,2013-09-15 11:10:00,
2013-09-15 07:15:00,48.2,47.6,29.97,SW,225,0.0,0.0,97,0.00,,,0.00,fowsr,2013-09-15 11:15:00,
2013-09-15 07:20:00,48.4,47.8,29.96,SW,225,0.0,0.0,97,0.00,,,0.00,fowsr,2013-09-15 11:20:00,
2013-09-15 07:25:00,48.7,48.1,29.97,SW,225,0.0,0.7,97,0.00,,,0.00,fowsr,2013-09-15 11:25:00,
2013-09-15 07:30:00,48.9,48.5,29.97,SW,225,0.0,0.0,98,0.00,,,0.00,fowsr,2013-09-15 11:30:00,
2013-09-15 07:35:00,48.9,48.5,29.97,NE,45,0.0,0.0,98,0.00,,,0.00,fowsr,2013-09-15 11:35:00,
2013-09-15 07:40:00,49.1,48.7,29.97,SW,225,0.0,0.7,98,0.00,,,0.00,fowsr,2013-09-15 11:40:00,
2013-09-15 07:45:00,49.5,49.1,29.97,SW,225,0.0,0.7,98,0.00,,,0.00,fowsr,2013-09-15 11:45:00,
2013-09-15 07:50:00,50.2,49.6,29.97,SW,225,0.0,0.7,97,0.00,,,0.00,fowsr,2013-09-15 11:50:00,
2013-09-15 08:00:00,51.4,51.0,29.98,SW,225,0.0,0.7,98,0.00,,,0.00,fowsr,2013-09-15 12:00:00,
2013-09-15 08:05:00,52.5,51.9,29.98,SW,225,0.0,0.7,97,0.00,,,0.00,fowsr,2013-09-15 12:05:00,
2013-09-15 08:10:00,53.6,52.8,29.98,SW,225,0.0,0.7,96,0.00,,,0.00,fowsr,2013-09-15 12:10:00,
2013-09-15 08:15:00,55.4,54.3,29.97,SW,225,0.7,1.6,95,0.00,,,0.00,fowsr,2013-09-15 12:15:00,
2013-09-15 08:20:00,57.6,55.6,29.98,South,180,1.6,2.2,91,0.00,,,0.00,fowsr,2013-09-15 12:20:00,
2013-09-15 08:25:00,59.0,55.8,29.98,SW,225,0.7,2.2,86,0.00,,,0.00,fowsr,2013-09-15 12:25:00,
2013-09-15 08:30:00,60.1,56.1,29.99,SW,225,1.6,2.2,83,0.00,,,0.00,fowsr,2013-09-15 12:30:00,
2013-09-15 08:35:00,61.0,55.9,29.98,SW,225,0.7,2.2,79,0.00,,,0.00,fowsr,2013-09-15 12:35:00,
2013-09-15 08:40:00,61.9,56.0,29.98,SW,225,1.6,2.2,76,0.00,,,0.00,fowsr,2013-09-15 12:40:00,
2013-09-15 08:45:00,62.4,56.0,29.98,SSW,202,0.7,2.2,74,0.00,,,0.00,fowsr,2013-09-15 12:45:00,
2013-09-15 08:50:00,62.8,55.4,29.99,West,270,0.7,2.2,71,0.00,,,0.00,fowsr,2013-09-15 12:50:00,
2013-09-15 08:55:00,63.0,55.0,29.99,SW,225,0.7,1.6,69,0.00,,,0.00,fowsr,2013-09-15 12:55:00,
2013-09-15 09:00:00,63.3,54.4,30.00,East,90,1.6,2.2,66,0.00,,,0.00,fowsr,2013-09-15 13:00:00,
2013-09-15 09:05:00,63.5,54.6,29.99,NE,45,0.7,1.6,66,0.00,,,0.00,fowsr,2013-09-15 13:05:00,
2013-09-15 09:10:00,63.9,54.9,29.99,West,270,0.7,1.6,66,0.00,,,0.00,fowsr,2013-09-15 13:10:00,
2013-09-15 09:15:00,64.4,55.4,30.00,North,0,0.0,0.7,66,0.00,,,0.00,fowsr,2013-09-15 13:15:00,
2013-09-15 09:20:00,65.1,56.1,29.99,SW,225,1.6,3.1,66,0.00,,,0.00,fowsr,2013-09-15 13:20:00,
2013-09-15 09:25:00,65.5,56.5,30.00,North,0,0.7,1.6,66,0.00,,,0.00,fowsr,2013-09-15 13:25:00,
2013-09-15 09:30:00,65.5,56.5,30.00,East,90,0.7,2.2,66,0.00,,,0.00,fowsr,2013-09-15 13:30:00,
2013-09-15 09:35:00,65.5,56.1,30.00,East,90,1.6,2.2,65,0.00,,,0.00,fowsr,2013-09-15 13:35:00,
2013-09-15 09:40:00,65.7,56.6,30.00,ESE,112,2.2,3.8,66,0.00,,,0.00,fowsr,2013-09-15 13:40:00,
2013-09-15 09:45:00,65.8,56.5,30.00,East,90,3.1,3.8,65,0.00,,,0.00,fowsr,2013-09-15 13:45:00,
2013-09-15 09:50:00,65.8,56.5,30.00,NE,45,0.0,1.6,65,0.00,,,0.00,fowsr,2013-09-15 13:50:00,
2013-09-15 09:55:00,66.0,57.0,30.00,East,90,1.6,3.1,66,0.00,,,0.00,fowsr,2013-09-15 13:55:00,
2013-09-15 10:00:00,66.2,56.1,30.00,NE,45,2.2,3.8,63,0.00,,,0.00,fowsr,2013-09-15 14:00:00,
2013-09-15 10:05:00,65.5,56.1,30.01,SW,225,0.7,2.2,65,0.00,,,0.00,fowsr,2013-09-15 14:05:00,
2013-09-15 10:10:00,65.5,56.5,30.00,South,180,1.6,2.2,66,0.00,,,0.00,fowsr,2013-09-15 14:10:00,
2013-09-15 10:15:00,65.3,56.3,30.00,NE,45,0.7,1.6,66,0.00,,,0.00,fowsr,2013-09-15 14:15:00,
2013-09-15 10:20:00,64.9,55.9,30.00,NE,45,3.1,4.5,66,0.00,,,0.00,fowsr,2013-09-15 14:20:00,
2013-09-15 10:25:00,64.8,55.8,30.00,East,90,0.7,1.6,66,0.00,,,0.00,fowsr,2013-09-15 14:25:00,
2013-09-15 10:30:00,64.9,55.9,30.00,South,180,3.1,4.5,66,0.00,,,0.00,fowsr,2013-09-15 14:30:00,
2013-09-15 10:35:00,65.7,56.6,30.00,East,90,2.2,3.8,66,0.00,,,0.00,fowsr,2013-09-15 14:35:00,
2013-09-15 10:40:00,65.8,56.5,30.00,NE,45,2.2,3.8,65,0.00,,,0.00,fowsr,2013-09-15 14:40:00,
2013-09-15 10:45:00,65.8,56.5,30.00,NE,45,2.2,3.1,65,0.00,,,0.00,fowsr,2013-09-15 14:45:00,
2013-09-15 10:55:00,66.2,56.5,30.00,North,0,0.7,1.6,64,0.00,,,0.00,fowsr,2013-09-15 14:55:00,
2013-09-15 11:05:00,66.2,56.5,30.00,East,90,1.6,2.2,64,0.00,,,0.00,fowsr,2013-09-15 15:05:00,
2013-09-15 11:10:00,66.7,56.7,30.00,NE,45,1.6,3.1,63,0.00,,,0.00,fowsr,2013-09-15 15:10:00,
2013-09-15 11:15:00,66.9,56.5,30.00,East,90,3.1,7.6,62,0.00,,,0.00,fowsr,2013-09-15 15:15:00,
2013-09-15 11:20:00,67.1,56.7,30.00,NE,45,3.8,5.4,62,0.00,,,0.00,fowsr,2013-09-15 15:20:00,
2013-09-15 11:25:00,67.3,56.8,30.00,East,90,1.6,3.1,62,0.00,,,0.00,fowsr,2013-09-15 15:25:00,
2013-09-15 11:35:00,67.8,57.0,30.00,East,90,2.2,5.4,61,0.00,,,0.00,fowsr,2013-09-15 15:35:00,
2013-09-15 11:40:00,68.2,57.3,29.99,NE,45,2.2,4.5,61,0.00,,,0.00,fowsr,2013-09-15 15:40:00,
2013-09-15 11:45:00,68.2,57.7,29.99,North,0,3.8,5.4,62,0.00,,,0.00,fowsr,2013-09-15 15:45:00,
2013-09-15 11:55:00,68.4,58.2,29.99,NE,45,2.2,3.8,63,0.00,,,0.00,fowsr,2013-09-15 15:55:00,
2013-09-15 12:00:00,68.5,58.0,29.99,SE,135,3.1,4.5,62,0.00,,,0.00,fowsr,2013-09-15 16:00:00,
2013-09-15 12:05:00,68.4,56.8,29.99,SE,135,3.1,5.4,59,0.00,,,0.00,fowsr,2013-09-15 16:05:00,
2013-09-15 12:10:00,68.7,57.5,29.99,SE,135,3.1,4.5,60,0.00,,,0.00,fowsr,2013-09-15 16:10:00,
2013-09-15 12:15:00,68.9,58.0,29.99,North,0,2.2,3.8,61,0.00,,,0.00,fowsr,2013-09-15 16:15:00,
2013-09-15 12:20:00,69.1,58.5,29.99,East,90,3.1,6.0,62,0.00,,,0.00,fowsr,2013-09-15 16:20:00,
2013-09-15 12:25:00,68.9,57.6,29.99,NE,45,3.1,4.5,60,0.00,,,0.00,fowsr,2013-09-15 16:25:00,
2013-09-15 12:30:00,68.9,57.6,29.99,NE,45,0.7,1.6,60,0.00,,,0.00,fowsr,2013-09-15 16:30:00,
2013-09-15 12:35:00,69.3,58.7,29.98,East,90,1.6,3.8,62,0.00,,,0.00,fowsr,2013-09-15 16:35:00,
2013-09-15 12:40:00,69.6,58.3,29.98,East,90,3.1,4.5,60,0.00,,,0.00,fowsr,2013-09-15 16:40:00,
2013-09-15 12:45:00,69.4,57.8,29.98,NE,45,1.6,2.2,59,0.00,,,0.00,fowsr,2013-09-15 16:45:00,
2013-09-15 12:50:00,69.1,57.4,29.98,South,180,0.7,3.1,59,0.00,,,0.00,fowsr,2013-09-15 16:50:00,
2013-09-15 12:55:00,69.4,58.1,29.98,North,0,1.6,3.1,60,0.00,,,0.00,fowsr,2013-09-15 16:55:00,
2013-09-15 13:00:00,69.6,57.9,29.98,East,90,2.2,3.8,59,0.00,,,0.00,fowsr,2013-09-15 17:00:00,
2013-09-15 13:05:00,70.0,56.8,29.98,East,90,1.6,4.5,55,0.00,,,0.00,fowsr,2013-09-15 17:05:00,
2013-09-15 13:10:00,70.0,57.2,29.98,NE,45,3.1,4.5,56,0.00,,,0.00,fowsr,2013-09-15 17:10:00,
2013-09-15 13:15:00,70.2,56.9,29.97,NE,45,2.2,4.5,55,0.00,,,0.00,fowsr,2013-09-15 17:15:00,
2013-09-15 13:20:00,70.0,56.0,29.98,North,0,2.2,3.8,53,0.00,,,0.00,fowsr,2013-09-15 17:20:00,
2013-09-15 13:25:00,70.0,56.0,29.98,North,0,0.0,0.7,53,0.00,,,0.00,fowsr,2013-09-15 17:25:00,
2013-09-15 13:30:00,70.5,56.1,29.98,East,90,3.1,4.5,52,0.00,,,0.00,fowsr,2013-09-15 17:30:00,
2013-09-15 13:35:00,70.3,55.9,29.97,SE,135,2.2,4.5,52,0.00,,,0.00,fowsr,2013-09-15 17:35:00,
2013-09-15 13:40:00,70.3,55.9,29.97,East,90,3.1,3.8,52,0.00,,,0.00,fowsr,2013-09-15 17:40:00,
2013-09-15 13:45:00,70.2,55.8,29.97,NE,45,2.2,4.5,52,0.00,,,0.00,fowsr,2013-09-15 17:45:00,
2013-09-15 13:50:00,70.5,56.5,29.97,East,90,3.1,4.5,53,0.00,,,0.00,fowsr,2013-09-15 17:50:00,
2013-09-15 13:55:00,70.9,57.6,29.97,East,90,3.8,6.0,55,0.00,,,0.00,fowsr,2013-09-15 17:55:00,
2013-09-15 14:00:00,71.1,57.4,29.96,NE,45,2.2,4.5,54,0.00,,,0.00,fowsr,2013-09-15 18:00:00,
2013-09-15 14:05:00,71.8,57.6,29.96,East,90,3.1,5.4,53,0.00,,,0.00,fowsr,2013-09-15 18:05:00,
2013-09-15 14:10:00,71.8,57.2,29.96,East,90,3.8,5.4,52,0.00,,,0.00,fowsr,2013-09-15 18:10:00,
2013-09-15 14:15:00,71.4,57.7,29.96,NE,45,2.2,3.8,54,0.00,,,0.00,fowsr,2013-09-15 18:15:00,
2013-09-15 14:20:00,71.2,57.5,29.95,East,90,3.8,6.0,54,0.00,,,0.00,fowsr,2013-09-15 18:20:00,
2013-09-15 14:25:00,70.9,58.0,29.95,NE,45,3.1,4.5,56,0.00,,,0.00,fowsr,2013-09-15 18:25:00,
2013-09-15 14:30:00,71.6,58.3,29.95,East,90,4.5,6.0,55,0.00,,,0.00,fowsr,2013-09-15 18:30:00,
2013-09-15 14:35:00,72.0,58.2,29.94,NW,315,0.7,1.6,54,0.00,,,0.00,fowsr,2013-09-15 18:35:00,
2013-09-15 14:40:00,72.0,57.8,29.94,North,0,3.1,3.8,53,0.00,,,0.00,fowsr,2013-09-15 18:40:00,
2013-09-15 14:45:00,72.5,57.5,29.95,WNW,292,0.7,1.6,51,0.00,,,0.00,fowsr,2013-09-15 18:45:00,
2013-09-15 14:50:00,72.5,57.9,29.94,West,270,1.6,2.2,52,0.00,,,0.00,fowsr,2013-09-15 18:50:00,
2013-09-15 14:55:00,72.7,57.6,29.94,SE,135,0.7,1.6,51,0.00,,,0.00,fowsr,2013-09-15 18:55:00,
2013-09-15 15:00:00,73.2,58.1,29.94,NE,45,1.6,3.1,51,0.00,,,0.00,fowsr,2013-09-15 19:00:00,
2013-09-15 15:10:00,73.4,57.4,29.93,NE,45,1.6,4.5,49,0.00,,,0.00,fowsr,2013-09-15 19:10:00,
2013-09-15 15:15:00,73.8,57.8,29.93,NW,315,0.7,1.6,49,0.00,,,0.00,fowsr,2013-09-15 19:15:00,
2013-09-15 15:20:00,73.2,58.1,29.93,SW,225,0.7,1.6,51,0.00,,,0.00,fowsr,2013-09-15 19:20:00,
2013-09-15 15:25:00,73.0,58.0,29.93,NW,315,2.2,3.1,51,0.00,,,0.00,fowsr,2013-09-15 19:25:00,
2013-09-15 15:30:00,73.0,58.0,29.92,NW,315,0.7,2.2,51,0.00,,,0.00,fowsr,2013-09-15 19:30:00,
2013-09-15 15:35:00,72.9,57.4,29.92,NE,45,3.8,6.9,50,0.00,,,0.00,fowsr,2013-09-15 19:35:00,
2013-09-15 15:40:00,72.7,57.6,29.92,NW,315,2.2,3.8,51,0.00,,,0.00,fowsr,2013-09-15 19:40:00,
2013-09-15 15:45:00,73.0,58.0,29.92,NW,315,1.6,3.1,51,0.00,,,0.00,fowsr,2013-09-15 19:45:00,
2013-09-15 15:50:00,73.0,56.2,29.92,East,90,0.7,1.6,47,0.00,,,0.00,fowsr,2013-09-15 19:50:00,
2013-09-15 15:55:00,73.0,57.5,29.92,NE,45,0.7,2.2,50,0.00,,,0.00,fowsr,2013-09-15 19:55:00,
2013-09-15 16:00:00,73.2,57.3,29.92,West,270,1.6,2.2,49,0.00,,,0.00,fowsr,2013-09-15 20:00:00,
2013-09-15 16:05:00,73.4,57.4,29.91,North,0,0.7,2.2,49,0.00,,,0.00,fowsr,2013-09-15 20:05:00,
2013-09-15 16:10:00,73.6,57.2,29.91,West,270,0.7,1.6,48,0.00,,,0.00,fowsr,2013-09-15 20:10:00,
2013-09-15 16:15:00,73.4,57.0,29.91,NE,45,0.7,2.2,48,0.00,,,0.00,fowsr,2013-09-15 20:15:00,
2013-09-15 16:20:00,73.2,57.7,29.91,North,0,0.7,2.2,50,0.00,,,0.00,fowsr,2013-09-15 20:20:00,
2013-09-15 16:25:00,72.9,57.0,29.91,NW,315,0.7,2.2,49,0.00,,,0.00,fowsr,2013-09-15 20:25:00,
2013-09-15 16:30:00,72.5,57.5,29.90,North,0,1.6,3.1,51,0.00,,,0.00,fowsr,2013-09-15 20:30:00,
2013-09-15 16:35:00,71.8,56.4,29.90,NE,45,1.6,2.2,50,0.00,,,0.00,fowsr,2013-09-15 20:35:00,
2013-09-15 16:40:00,71.6,56.7,29.90,SW,225,0.7,1.6,51,0.00,,,0.00,fowsr,2013-09-15 20:40:00,
2013-09-15 16:45:00,72.1,57.2,29.90,North,0,1.6,2.2,51,0.00,,,0.00,fowsr,2013-09-15 20:45:00,
2013-09-15 16:50:00,72.7,56.8,29.90,North,0,0.7,1.6,49,0.00,,,0.00,fowsr,2013-09-15 20:50:00,
2013-09-15 16:55:00,72.9,56.5,29.90,East,90,1.6,3.1,48,0.00,,,0.00,fowsr,2013-09-15 20:55:00,
2013-09-15 17:00:00,72.0,55.3,29.90,NE,45,0.7,1.6,47,0.00,,,0.00,fowsr,2013-09-15 21:00:00,
2013-09-15 17:05:00,71.2,56.3,29.90,NE,45,1.6,2.2,51,0.00,,,0.00,fowsr,2013-09-15 21:05:00,
2013-09-15 17:10:00,70.9,56.0,29.90,North,0,0.7,1.6,51,0.00,,,0.00,fowsr,2013-09-15 21:10:00,
2013-09-15 17:15:00,71.1,56.6,29.90,North,0,0.7,2.2,52,0.00,,,0.00,fowsr,2013-09-15 21:15:00,
2013-09-15 17:20:00,70.9,56.4,29.90,West,270,0.0,1.6,52,0.00,,,0.00,fowsr,2013-09-15 21:20:00,
2013-09-15 17:25:00,70.9,56.8,29.89,NE,45,1.6,2.2,53,0.00,,,0.00,fowsr,2013-09-15 21:25:00,
2013-09-15 17:30:00,71.2,56.7,29.90,NW,315,0.0,0.7,52,0.00,,,0.00,fowsr,2013-09-15 21:30:00,
2013-09-15 17:35:00,71.2,57.2,29.90,NW,315,0.7,1.6,53,0.00,,,0.00,fowsr,2013-09-15 21:35:00,
2013-09-15 17:40:00,71.2,57.2,29.89,North,0,0.0,1.6,53,0.00,,,0.00,fowsr,2013-09-15 21:40:00,
2013-09-15 17:45:00,71.2,57.5,29.90,North,0,1.6,3.1,54,0.00,,,0.00,fowsr,2013-09-15 21:45:00,
2013-09-15 17:50:00,70.7,57.1,29.90,NNW,337,0.7,3.1,54,0.00,,,0.00,fowsr,2013-09-15 21:50:00,
2013-09-15 17:55:00,70.5,57.7,29.90,North,0,1.6,3.1,56,0.00,,,0.00,fowsr,2013-09-15 21:55:00,
2013-09-15 18:00:00,70.5,57.7,29.90,NW,315,0.7,2.2,56,0.00,,,0.00,fowsr,2013-09-15 22:00:00,
2013-09-15 18:05:00,70.3,57.5,29.89,North,0,1.6,2.2,56,0.00,,,0.00,fowsr,2013-09-15 22:05:00,
2013-09-15 18:10:00,70.3,58.2,29.89,SE,135,2.2,3.1,58,0.00,,,0.00,fowsr,2013-09-15 22:10:00,
2013-09-15 18:15:00,69.8,57.7,29.90,SE,135,0.7,1.6,58,0.00,,,0.00,fowsr,2013-09-15 22:15:00,
2013-09-15 18:20:00,69.3,58.0,29.89,East,90,0.0,1.6,60,0.00,,,0.00,fowsr,2013-09-15 22:20:00,
2013-09-15 18:25:00,68.9,58.3,29.89,North,0,1.6,4.5,62,0.00,,,0.00,fowsr,2013-09-15 22:25:00,
2013-09-15 18:30:00,68.4,58.2,29.89,NW,315,1.6,3.1,63,0.00,,,0.00,fowsr,2013-09-15 22:30:00,
2013-09-15 18:35:00,68.2,58.3,29.89,West,270,1.6,2.2,64,0.00,,,0.00,fowsr,2013-09-15 22:35:00,
2013-09-15 18:40:00,67.6,58.2,29.90,NW,315,0.7,1.6,65,0.00,,,0.00,fowsr,2013-09-15 22:40:00,
2013-09-15 18:45:00,67.3,58.1,29.89,NW,315,1.6,3.1,66,0.00,,,0.00,fowsr,2013-09-15 22:45:00,
2013-09-15 18:50:00,67.1,58.3,29.89,West,270,0.7,2.2,67,0.00,,,0.00,fowsr,2013-09-15 22:50:00,
2013-09-15 18:55:00,66.9,58.4,29.89,NW,315,0.7,1.6,68,0.00,,,0.00,fowsr,2013-09-15 22:55:00,
2013-09-15 19:00:00,66.7,58.6,29.88,South,180,1.6,2.2,69,0.00,,,0.00,fowsr,2013-09-15 23:00:00,
2013-09-15 19:05:00,66.4,58.6,29.88,East,90,1.6,2.2,70,0.00,,,0.00,fowsr,2013-09-15 23:05:00,
2013-09-15 19:10:00,66.4,58.9,29.88,South,180,1.6,2.2,71,0.00,,,0.00,fowsr,2013-09-15 23:10:00,
2013-09-15 19:15:00,66.4,58.9,29.88,NE,45,0.0,1.6,71,0.00,,,0.00,fowsr,2013-09-15 23:15:00,
2013-09-15 19:20:00,66.2,59.0,29.88,NE,45,1.6,2.2,72,0.00,,,0.00,fowsr,2013-09-15 23:20:00,
2013-09-15 19:25:00,66.2,59.6,29.88,WSW,247,0.7,2.2,74,0.00,,,0.00,fowsr,2013-09-15 23:25:00,
2013-09-15 19:30:00,66.2,59.6,29.88,North,0,1.6,2.2,74,0.00,,,0.00,fowsr,2013-09-15 23:30:00,
2013-09-15 19:35:00,66.4,60.0,29.88,West,270,0.7,1.6,75,0.00,,,0.00,fowsr,2013-09-15 23:35:00,
2013-09-15 19:40:00,66.2,59.9,29.88,NE,45,1.6,3.8,75,0.00,,,0.00,fowsr,2013-09-15 23:40:00,
2013-09-15 19:45:00,66.2,60.1,29.88,East,90,0.7,2.2,76,0.00,,,0.00,fowsr,2013-09-15 23:45:00,
2013-09-15 19:55:00,66.2,60.1,29.89,West,270,2.2,6.9,76,0.00,,,0.00,fowsr,2013-09-15 23:55:00,
2013-09-15 20:00:00,66.4,60.6,29.89,NW,315,0.7,1.6,77,0.00,,,0.00,fowsr,2013-09-16 00:00:00,
2013-09-15 20:05:00,66.4,60.6,29.89,East,90,0.7,2.2,77,0.00,,,0.00,fowsr,2013-09-16 00:05:00,
2013-09-15 20:10:00,66.4,60.9,29.89,NW,315,0.7,1.6,78,0.00,,,0.00,fowsr,2013-09-16 00:10:00,
2013-09-15 20:15:00,66.4,60.9,29.88,NW,315,1.6,2.2,78,0.00,,,0.00,fowsr,2013-09-16 00:15:00,
2013-09-15 20:20:00,66.2,61.0,29.88,South,180,0.0,1.6,79,0.00,,,0.00,fowsr,2013-09-16 00:20:00,
2013-09-15 20:25:00,66.2,61.0,29.89,SE,135,0.7,2.2,79,0.00,,,0.00,fowsr,2013-09-16 00:25:00,
2013-09-15 20:30:00,66.2,61.0,29.89,NW,315,0.7,1.6,79,0.00,,,0.00,fowsr,2013-09-16 00:30:00,
2013-09-15 20:35:00,66.2,60.7,29.89,NW,315,0.7,2.2,78,0.00,,,0.00,fowsr,2013-09-16 00:35:00,
2013-09-15 20:40:00,66.4,60.9,29.89,NE,45,3.1,4.5,78,0.00,,,0.00,fowsr,2013-09-16 00:40:00,
2013-09-15 20:45:00,66.4,60.6,29.89,NE,45,1.6,3.1,77,0.00,,,0.00,fowsr,2013-09-16 00:45:00,
2013-09-15 20:50:00,66.4,60.6,29.89,North,0,0.7,1.6,77,0.00,,,0.00,fowsr,2013-09-16 00:50:00,
2013-09-15 20:55:00,66.4,60.9,29.89,NW,315,1.6,3.8,78,0.00,,,0.00,fowsr,2013-09-16 00:55:00,
2013-09-15 21:00:00,66.4,60.9,29.89,North,0,1.6,3.1,78,0.00,,,0.00,fowsr,2013-09-16 01:00:00,
2013-09-15 21:05:00,66.4,60.9,29.89,East,90,2.2,6.0,78,0.00,,,0.00,fowsr,2013-09-16 01:05:00,
2013-09-15 21:10:00,66.6,61.1,29.89,NNE,22,0.7,2.2,78,0.00,,,0.00,fowsr,2013-09-16 01:10:00,
2013-09-15 21:15:00,66.6,61.1,29.89,North,0,3.8,7.6,78,0.00,,,0.00,fowsr,2013-09-16 01:15:00,
2013-09-15 21:20:00,66.7,61.2,29.89,West,270,0.7,2.2,78,0.00,,,0.00,fowsr,2013-09-16 01:20:00,
2013-09-15 21:25:00,66.7,61.2,29.89,NW,315,1.6,3.1,78,0.00,,,0.00,fowsr,2013-09-16 01:25:00,
2013-09-15 21:30:00,66.7,61.5,29.89,NE,45,1.6,2.2,79,0.00,,,0.00,fowsr,2013-09-16 01:30:00,
2013-09-15 21:35:00,66.7,61.8,29.88,North,0,1.6,3.8,80,0.00,,,0.00,fowsr,2013-09-16 01:35:00,
2013-09-15 21:40:00,66.7,61.8,29.89,North,0,2.2,3.8,80,0.00,,,0.00,fowsr,2013-09-16 01:40:00,
2013-09-15 21:45:00,66.9,61.7,29.89,North,0,1.6,3.1,79,0.00,,,0.00,fowsr,2013-09-16 01:45:00,
2013-09-15 21:50:00,67.1,61.6,29.89,NW,315,1.6,2.2,78,0.00,,,0.00,fowsr,2013-09-16 01:50:00,
2013-09-15 21:55:00,67.1,61.6,29.89,North,0,1.6,3.8,78,0.00,,,0.00,fowsr,2013-09-16 01:55:00,
2013-09-15 22:00:00,67.1,61.9,29.89,NE,45,3.1,5.4,79,0.00,,,0.00,fowsr,2013-09-16 02:00:00,
2013-09-15 22:10:00,66.9,61.4,29.89,NE,45,0.7,2.2,78,0.00,,,0.00,fowsr,2013-09-16 02:10:00,
2013-09-15 22:15:00,66.9,61.4,29.88,NE,45,1.6,3.1,78,0.00,,,0.00,fowsr,2013-09-16 02:15:00,
2013-09-15 22:20:00,66.9,61.4,29.89,East,90,0.7,1.6,78,0.00,,,0.00,fowsr,2013-09-16 02:20:00,
2013-09-15 22:30:00,66.7,61.5,29.88,North,0,0.7,1.6,79,0.00,,,0.00,fowsr,2013-09-16 02:30:00,
2013-09-15 22:35:00,66.7,61.5,29.88,WNW,292,2.2,4.5,79,0.00,,,0.00,fowsr,2013-09-16 02:35:00,
2013-09-15 22:40:00,66.7,61.5,29.88,North,0,1.6,3.1,79,0.00,,,0.00,fowsr,2013-09-16 02:40:00,
2013-09-15 22:45:00,66.7,61.5,29.88,NW,315,0.7,2.2,79,0.00,,,0.00,fowsr,2013-09-16 02:45:00,
2013-09-15 22:55:00,66.7,61.8,29.88,NE,45,2.2,5.4,80,0.00,,,0.00,fowsr,2013-09-16 02:55:00,
2013-09-15 23:00:00,66.7,61.8,29.88,North,0,0.7,1.6,80,0.00,,,0.00,fowsr,2013-09-16 03:00:00,
2013-09-15 23:05:00,66.7,61.8,29.88,NNW,337,0.7,1.6,80,0.00,,,0.00,fowsr,2013-09-16 03:05:00,
2013-09-15 23:10:00,66.6,61.6,29.88,North,0,0.7,2.2,80,0.00,,,0.00,fowsr,2013-09-16 03:10:00,
2013-09-15 23:15:00,66.6,61.6,29.89,NE,45,1.6,3.8,80,0.00,,,0.00,fowsr,2013-09-16 03:15:00,
2013-09-15 23:20:00,66.7,61.8,29.88,East,90,0.7,1.6,80,0.00,,,0.00,fowsr,2013-09-16 03:20:00,
2013-09-15 23:25:00,66.7,61.5,29.88,NW,315,0.7,1.6,79,0.00,,,0.00,fowsr,2013-09-16 03:25:00,
2013-09-15 23:30:00,66.6,61.3,29.88,SE,135,0.7,1.6,79,0.00,,,0.00,fowsr,2013-09-16 03:30:00,
2013-09-15 23:35:00,66.6,61.3,29.88,SE,135,1.6,2.2,79,0.00,,,0.00,fowsr,2013-09-16 03:35:00,
2013-09-15 23:40:00,66.6,61.3,29.88,North,0,5.4,7.6,79,0.00,,,0.00,fowsr,2013-09-16 03:40:00,
2013-09-15 23:45:00,66.6,61.3,29.88,North,0,0.7,2.2,79,0.00,,,0.00,fowsr,2013-09-16 03:45:00,
2013-09-15 23:50:00,66.4,61.2,29.88,North,0,1.6,6.0,79,0.00,,,0.00,fowsr,2013-09-16 03:50:00,
2013-09-15 23:55:00,66.4,61.4,29.88,NW,315,0.0,1.6,80,0.00,,,0.00,fowsr,2013-09-16 03:55:00,